Weather History for Rensselaer, IN

Change the Weather History Date:

Saturday, June 8, 2013

  Actual Average (KVPZ) Record (KVPZ)
Temperature  
Mean Temperature 64 °F 67 °F  
Max Temperature 78 °F 78 °F 96 °F (2011)
Min Temperature 51 °F 56 °F 43 °F (1998)
Degree Days  
Heating Degree Days 0 2  
Month to date heating degree days 22  
Since 1 June heating degree days 22  
Since 1 July heating degree days 6301  
Cooling Degree Days 0 4  
Month to date cooling degree days 29  
Year to date cooling degree days 76  
Since 1 June cooling degree days 29  
Growing Degree Days 14 (Base 50)    
Moisture  
Dew Point 47 °F    
Average Humidity 56    
Maximum Humidity 82    
Minimum Humidity 24    
Precipitation  
Precipitation 0.00 in 0.13 in 0.48 in (2014)
Month to date precipitation 1.08  
Year to date precipitation 14.06  
Sea Level Pressure  
Sea Level Pressure 29.96 in    
Wind  
Wind Speed 3 mph (NE)    
Max Wind Speed 9 mph    
Max Gust Speed -    
Visibility 10 miles    
Events      
T = Trace of Precipitation, MM = Missing Value Source: NWS Daily Summary

Daily Weather History Graph

Daily Weather History Graph

Search for Another Location

Airport:

Trip Planner

Search our weather history database for the weather conditions in past years. The results will help you decide how hot, cold, wet, or windy it might be!

Date:

Astronomy

Jun. 08, 2013 Rise Set
Actual Time 5:16 AM CDT 8:19 PM CDT
Civil Twilight 4:43 AM CDT 8:52 PM CDT
Nautical Twilight 4:01 AM CDT 9:34 PM CDT
Astronomical Twilight 3:11 AM CDT 10:24 PM CDT
Moon 5:24 AM CDT (6/8) 8:20 PM CDT (6/8)
Length of Visible Light 16h 09m
Length of Day
15h 02m
New Moon, 0% of the Moon is Illuminated
Jun 8
New Moon
Jun 16
First Quarter
Jun 23
Full
Jun 29
Last Quarter
Jul 8
New

Hourly Weather History & Observations

Time (CDT) Temp. Dew Point Humidity Pressure Visibility Wind Dir Wind Speed Gust Speed Precip Events Conditions
12:15 AM 53.6 °F 41.0 °F 62% 29.92 in 10.0 mi North 5.8 mph - N/A   Scattered Clouds
12:35 AM 53.6 °F 41.0 °F 62% 29.92 in 10.0 mi Calm Calm - N/A   Clear
12:55 AM 53.6 °F 42.8 °F 67% 29.92 in 10.0 mi Calm Calm - N/A   Scattered Clouds
1:15 AM 53.6 °F 42.8 °F 67% 29.92 in 10.0 mi Calm Calm - N/A   Mostly Cloudy
1:35 AM 53.6 °F 42.8 °F 67% 29.92 in 10.0 mi North 3.5 mph - N/A   Scattered Clouds
1:55 AM 51.8 °F 42.8 °F 71% 29.92 in 10.0 mi North 3.5 mph - N/A   Clear
2:15 AM 51.8 °F 42.8 °F 71% 29.92 in 10.0 mi Calm Calm - N/A   Clear
2:35 AM 51.8 °F 44.6 °F 76% 29.92 in 10.0 mi Calm Calm - N/A   Clear
2:55 AM 51.8 °F 44.6 °F 76% 29.92 in 10.0 mi Calm Calm - N/A   Clear
3:15 AM 51.8 °F 44.6 °F 76% 29.92 in 10.0 mi Calm Calm - N/A   Clear
3:35 AM 51.8 °F 42.8 °F 71% 29.93 in 10.0 mi Calm Calm - N/A   Clear
3:55 AM 51.8 °F 42.8 °F 71% 29.93 in 10.0 mi North 3.5 mph - N/A   Clear
4:15 AM 51.8 °F 44.6 °F 76% 29.93 in 10.0 mi NNE 3.5 mph - N/A   Clear
4:35 AM 51.8 °F 44.6 °F 76% 29.93 in 10.0 mi NNE 3.5 mph - N/A   Clear
4:55 AM 51.8 °F 44.6 °F 76% 29.93 in 10.0 mi Calm Calm - N/A   Clear
5:15 AM 51.8 °F 44.6 °F 76% 29.94 in 10.0 mi Calm Calm - N/A   Clear
5:35 AM 51.8 °F 46.4 °F 82% 29.94 in 10.0 mi Calm Calm - N/A   Scattered Clouds
5:55 AM 51.8 °F 46.4 °F 82% 29.94 in 10.0 mi North 3.5 mph - N/A   Scattered Clouds
6:15 AM 51.8 °F 46.4 °F 82% 29.96 in 10.0 mi NNW 5.8 mph - N/A   Scattered Clouds
6:35 AM 53.6 °F 48.2 °F 82% 29.97 in 10.0 mi NNW 4.6 mph - N/A   Clear
6:55 AM 55.4 °F 50.0 °F 82% 29.97 in 10.0 mi Calm Calm - N/A   Clear
7:15 AM 57.2 °F 51.8 °F 82% 29.97 in 10.0 mi Calm Calm - N/A   Clear
7:35 AM 59.0 °F 51.8 °F 77% 29.98 in 10.0 mi ENE 4.6 mph - N/A   Mostly Cloudy
7:55 AM 60.8 °F 53.6 °F 77% 29.98 in 10.0 mi East 3.5 mph - N/A   Mostly Cloudy
8:15 AM 62.6 °F 53.6 °F 72% 29.98 in 10.0 mi Calm Calm - N/A   Clear
8:35 AM 64.4 °F 53.6 °F 68% 29.99 in 10.0 mi Calm Calm - N/A   Clear
8:55 AM 64.4 °F 53.6 °F 68% 29.99 in 10.0 mi Calm Calm - N/A   Clear
9:15 AM 66.2 °F 55.4 °F 68% 29.99 in 10.0 mi SSE 4.6 mph - N/A   Clear
9:35 AM 66.2 °F 55.4 °F 68% 29.98 in 10.0 mi South 6.9 mph - N/A   Clear
9:55 AM 68.0 °F 55.4 °F 64% 29.98 in 10.0 mi Calm Calm - N/A   Clear
10:15 AM 68.0 °F 55.4 °F 64% 29.98 in 10.0 mi SE 3.5 mph - N/A   Clear
10:35 AM 69.8 °F 55.4 °F 60% 29.98 in 10.0 mi SSW 3.5 mph - N/A   Clear
10:55 AM 69.8 °F 55.4 °F 60% 29.97 in 10.0 mi SE 8.1 mph - N/A   Clear
11:15 AM 71.6 °F 55.4 °F 57% 29.97 in 10.0 mi South 4.6 mph - N/A   Clear
11:35 AM 71.6 °F 50.0 °F 46% 29.98 in 10.0 mi ESE 3.5 mph - N/A   Clear
11:55 AM 71.6 °F 50.0 °F 46% 29.98 in 10.0 mi SSE 5.8 mph - N/A   Clear
12:15 PM 73.4 °F 50.0 °F 44% 29.97 in 10.0 mi SSE 3.5 mph - N/A   Clear
12:35 PM 73.4 °F 46.4 °F 38% 29.97 in 10.0 mi ESE 3.5 mph - N/A   Clear
12:55 PM 73.4 °F 44.6 °F 36% 29.96 in 10.0 mi WSW 9.2 mph - N/A   Clear
1:15 PM 73.4 °F 42.8 °F 33% 29.96 in 10.0 mi SSW 6.9 mph - N/A   Clear
1:35 PM 75.2 °F 42.8 °F 31% 29.96 in 10.0 mi WSW 9.2 mph - N/A   Clear
1:55 PM 75.2 °F 44.6 °F 34% 29.96 in 10.0 mi Calm Calm - N/A   Clear
2:15 PM 77.0 °F 42.8 °F 29% 29.96 in 10.0 mi SSW 6.9 mph - N/A   Scattered Clouds
2:35 PM 77.0 °F 41.0 °F 28% 29.95 in 10.0 mi SW 3.5 mph - N/A   Scattered Clouds
2:55 PM 77.0 °F 41.0 °F 28% 29.95 in 10.0 mi SE 4.6 mph - N/A   Mostly Cloudy
3:15 PM 77.0 °F 41.0 °F 28% 29.95 in 10.0 mi South 9.2 mph - N/A   Scattered Clouds
3:35 PM 77.0 °F 41.0 °F 28% 29.95 in 10.0 mi West 5.8 mph - N/A   Scattered Clouds
3:55 PM 78.8 °F 41.0 °F 26% 29.95 in 10.0 mi WSW 8.1 mph - N/A   Scattered Clouds
4:15 PM 78.8 °F 39.2 °F 24% 29.96 in 10.0 mi SW 6.9 mph - N/A   Scattered Clouds
4:35 PM 78.8 °F 41.0 °F 26% 29.95 in 10.0 mi SSW 5.8 mph - N/A   Scattered Clouds
4:55 PM 77.0 °F 41.0 °F 28% 29.96 in 10.0 mi SW 5.8 mph - N/A   Scattered Clouds
5:15 PM 77.0 °F 41.0 °F 28% 29.96 in 10.0 mi West 5.8 mph - N/A   Scattered Clouds
5:35 PM 77.0 °F 41.0 °F 28% 29.96 in 10.0 mi Calm Calm - N/A   Mostly Cloudy
5:55 PM 78.8 °F 41.0 °F 26% 29.96 in 10.0 mi West 8.1 mph - N/A   Mostly Cloudy
6:15 PM 77.0 °F 41.0 °F 28% 29.96 in 10.0 mi WSW 5.8 mph - N/A   Overcast
6:35 PM 77.0 °F 39.2 °F 26% 29.96 in 10.0 mi Calm Calm - N/A   Scattered Clouds
6:55 PM 77.0 °F 41.0 °F 28% 29.96 in 10.0 mi SW 3.5 mph - N/A   Clear
7:15 PM 73.4 °F 50.0 °F 44% 29.97 in 10.0 mi NNE 9.2 mph - N/A   Mostly Cloudy
7:35 PM 71.6 °F 50.0 °F 46% 29.98 in 10.0 mi NNE 9.2 mph - N/A   Overcast
7:55 PM 71.6 °F 51.8 °F 50% 29.98 in 10.0 mi NNE 6.9 mph - N/A   Scattered Clouds
8:15 PM 69.8 °F 51.8 °F 53% 29.98 in 10.0 mi NNE 6.9 mph - N/A   Clear
8:35 PM 68.0 °F 51.8 °F 56% 29.98 in 10.0 mi NNE 5.8 mph - N/A   Clear
8:55 PM 68.0 °F 51.8 °F 56% 29.99 in 10.0 mi NNE 5.8 mph - N/A   Clear
9:15 PM 66.2 °F 50.0 °F 56% 30.00 in 10.0 mi NE 6.9 mph - N/A   Clear
9:35 PM 64.4 °F 51.8 °F 64% 30.01 in 10.0 mi NNE 5.8 mph - N/A   Clear
9:55 PM 64.4 °F 51.8 °F 64% 30.01 in 10.0 mi NE 6.9 mph - N/A   Clear
10:15 PM 64.4 °F 50.0 °F 59% 30.01 in 10.0 mi NE 5.8 mph - N/A   Clear
10:35 PM 62.6 °F 50.0 °F 63% 30.01 in 10.0 mi NE 5.8 mph - N/A   Clear
10:55 PM 60.8 °F 50.0 °F 68% 30.01 in 10.0 mi NE 4.6 mph - N/A   Clear
11:15 PM 60.8 °F 50.0 °F 68% 30.01 in 10.0 mi NE 4.6 mph - N/A   Clear
11:35 PM 60.8 °F 50.0 °F 68% 30.01 in 10.0 mi NE 4.6 mph - N/A   Clear
11:55 PM 60.8 °F 50.0 °F 68% 30.02 in 10.0 mi ENE 4.6 mph - N/A   Clear